Notices

What's New in latest Release from April 7th, 2021:

- Updated Glossary, including Speed of Maximum Gust, and Total Hourly Precipitation

- Updated national and regional climate services offices contacts and prices information

- Addition of station inventory lists for 1981-2010, 1971-2000, and 1961-1990 Normals.

If you haven't already, please take our survey and provide feedback about our website: https://eccc.sondage-survey.ca/f/LanguageSelection.aspx?s=442ca660-fcf1-47c0-95a9-59707d6fd709

Hourly Data Report for November 28, 2017

VICTORIA UNIVERSITY CS
BRITISH COLUMBIA

48°27'25.200" N
123°18'16.600" W
60.10 m
1018598
71783
WYJ

Download Data

Hourly Data (November 2017)
Hourly Data Report for November 28, 2017
TIME
LST
Temp Definition
°C
Dew Point Definition
°C
Rel Hum Definition
%
Precip. Amount Definition
mm

Wind Dir Definition
10's deg

Wind Spd Definition
km/h
Visibility Definition
km
Stn Press Definition
kPa
Hmdx Definition


Wind Chill Definition


Weather Definition


00:00 6.5 4.7 89 0.0   0   100.83     LegendNANA
01:00 6.2 4.9 92 0.0 32 4   100.79     LegendNANA
02:00 6.3 4.8 90 0.0 35 3   100.70     LegendNANA
03:00 6.2 5.1 93 0.0   0   100.58     LegendNANA
04:00 6.7 4.8 88 0.0 12 2   100.45     LegendNANA
05:00 7.5 4.3 80 0.0 13 3   100.36     LegendNANA
06:00 8.1 5.2 82 0.0 13 5   100.34     LegendNANA
07:00 8.0 5.2 83 0.0 15 7   100.30     LegendNANA
08:00 8.2 5.2 82 0.0 16 9   100.36     LegendNANA
09:00 7.4 5.6 88 0.5 29 6   100.45     LegendNANA
10:00 6.9 5.4 91 1.9 28 5   100.58     LegendNANA
11:00 6.2 5.1 93 0.6 22 5   100.61     LegendNANA
12:00 5.9 4.6 92 0.6 24 8   100.58     LegendNANA
13:00 5.7 4.2 90 0.0 24 7   100.56     LegendNANA
14:00 5.9 4.4 90 0.0 24 3   100.58     LegendNANA
15:00 6.0 4.3 89 0.0 34 1   100.68     LegendNANA
16:00 7.2 3.7 79 0.0 26 7   100.77     LegendNANA
17:00 6.5 3.8 83 0.0 25 12   100.83     LegendNANA
18:00 6.4 3.9 84 0.0 25 11   100.93     LegendNANA
19:00 6.0 3.7 85 0.0 26 9   100.99     LegendNANA
20:00 6.1 3.5 84 0.0 24 6   101.12     LegendNANA
21:00 6.1 3.9 86 0.0 23 7   101.21     LegendNANA
22:00 6.5 4.3 86 0.0 25 13   101.30     LegendNANA
23:00 5.8 3.4 85 0.0 26 8   101.42     LegendNANA

Notes on Data Quality.

Legend

  • E = Estimated
  • M = Missing
  • NA = Not Available*
  • [empty] = Indicates an unobserved value
Date modified: